Simultaneous Nadir Overpasses (SNOs) Predictions

Prediction of SNOs between NOAA-20 and TERRA Satellite Orbit:

Table of predicted SNOs for the next 14.0 days since TLE Epoch: 7/15/2024
Index Date (NOAA-20) Time (NOAA-20) Lat,Lon (NOAA-20) SZA (NOAA-20 ) Date (TERRA) Time (TERRA) Lat,Lon (TERRA) SZA (TERRA ) Distance(km) Time Diff (sec)
1 07/15/2024 04:44:56 72.85, 100.29 51.62 07/15/2024 04:46:06 72.74, 101.71 51.41 48.25 70
2 07/15/2024 05:35:30 -72.38, -91.42 128.90 07/15/2024 05:35:35 -72.37, -91.32 128.92 3.51 5
3 07/15/2024 06:26:11 72.09, 76.44 50.80 07/15/2024 06:24:59 72.15, 75.96 50.89 17.51 72
4 07/17/2024 16:47:57 -72.40, 100.42 128.46 07/17/2024 16:48:42 -72.42, 100.45 128.46 2.13 45
5 07/17/2024 17:38:42 72.33, -92.13 51.47 07/17/2024 17:38:04 72.31, -92.08 51.46 2.93 38
6 07/20/2024 04:00:33 -72.89, -68.70 127.46 07/20/2024 04:01:42 -72.80, -67.15 127.65 51.67 69
7 07/20/2024 04:51:09 72.37, 99.68 51.97 07/20/2024 04:51:10 72.37, 99.73 51.97 1.83 1
8 07/20/2024 05:41:48 -72.13, -92.55 128.28 07/20/2024 05:40:35 -72.21, -92.91 128.17 14.83 73
9 07/22/2024 16:03:36 72.41, -68.52 52.50 07/22/2024 16:04:16 72.40, -68.54 52.49 0.79 40
10 07/22/2024 16:54:18 -72.33, 98.96 127.58 07/22/2024 16:53:39 -72.35, 99.02 127.56 2.84 39
11 07/25/2024 03:16:07 72.67, 122.85 53.31 07/25/2024 03:17:19 72.56, 123.43 53.15 22.90 72
12 07/25/2024 04:06:45 -72.37, -69.25 127.01 07/25/2024 04:06:44 -72.39, -69.22 127.00 1.96 1
13 07/25/2024 04:57:22 71.90, 98.96 52.49 07/25/2024 04:56:12 71.96, 97.69 52.63 44.19 70
14 07/27/2024 15:19:12 -72.43, 122.53 126.40 07/27/2024 15:19:48 -72.45, 122.58 126.39 2.79 36
15 07/27/2024 16:09:56 72.32, -69.95 53.50 07/27/2024 16:09:10 72.34, -69.94 53.52 2.02 46



Historial Predications of SNOs between NOAA-20 and TERRA
